Main page
METAR-TAF:

METAR-TAF

Airports :

Mahshahr, Iran

Mahshahr Airport

latitude: 30-33-23N, longitude: 049-09-07E, elevation: 2 m

Current weather observation

The report was made 35 minutes ago, at 20:00 UTC
Calm wind
Temperature 11°C
Humidity 66%
Pressure 1023 hPa
Visibility 10 km or more
no clouds below 1500 m and no cumulonimbus

METAR: OIAM 182000Z 00000KT CAVOK 11/05 Q1023

Time: 00:05 (20:35 UTC)


TAF: missing

Weather observations and forecasts of more than 4000 airports (METAR and TAF reports).

The available stations are represented by yellow and red dots on the map.

Hover mouse over dot to see the name of the station.

Then click to see weather observations and forecasts.

To change the map : click on the green buttons with a black cross to zoom in, on the green button with a dash to zoom out, or on the green arrows for adjacent maps.


METAR-TAF: